Temperature
15 15 15 15 15 15 15 15 15 15 15 15 15 15 15 15 15 15 15 15 15 15 15 15 15 15 15 15 15 15 15 15 15 15 15 15 15 15 15 15 15 15 15
15 15 15 15 15 15 15 15 15 15 15 14 14 14 15 15 15 15 15 15 15 15 15 14 14 14 15 14 14 15 15 15 15 15 15 15 15 15 15 15 15 15 15
15 15 15 15 15 15 15 14 15 15 15 14 14 14 14 14 14 14 14 14 14 14 14 14 14 14 14 14 14 14 14 14 14 14 14 14 14 15 14 14 14 14 15
15 15 15 15 15 14 14 14 14 14 14 14 14 14 14 14 14 14 14 14 14 14 14 14 14 14 14 14 14 14 14 14 14 14 14 14 14 14 14 14 14 14 14
15 15 15 14 14 14 14 14 14 14 14 14 14 14 14 14 14 14 14 14 14 14 14 14 14 14 14 14 14 14 14 14 14 14 14 14 14 14 14 14 14 14 14
15 15 14 14 14 14 14 14 14 14 14 14 14 14 14 14 14 14 14 14 14 14 14 14 14 14 14 14 13 14 14 14 14 14 14 14 14 14 14 14 14 14 14
15 14 14 14 14 14 14 14 14 14 14 14 14 14 14 14 13 13 13 14 14 14 14 14 14 14 13 13 13 13 13 13 14 14 14 14 14 14 14 13 13 14 14
14 14 14 14 14 14 14 14 14 14 13 13 13 13 13 13 13 13 13 13 13 13 13 13 13 13 13 13 13 13 13 13 13 13 13 13 13 13 13 13 13 13 13
14 14 14 14 14 14 14 14 14 14 14 13 13 13 13 13 13 13 13 13 13 13 13 13 13 13 13 13 13 13 13 13 13 13 13 13 13 13 13 13 13 13 13
14 14 14 14 14 14 13 13 13 13 13 13 13 13 13 13 13 13 13 13 13 13 13 13 13 13 13 13 13 13 13 13 13 13 13 13 13 13 13 13 13 13 13
14 14 14 13 13 13 13 13 13 13 13 13 13 13 13 13 13 13 13 13 13 13 13 13 13 13 13 13 13 13 13 13 13 13 13 13 13 13 13 13 13 12 12
14 14 13 13 13 13 13 13 13 13 13 13 13 13 13 13 13 13 13 13 12 13 13 13 13 13 13 13 13 13 13 13 13 13 13 13 13 13 12 12 12 12 12
14 14 13 13 13 13 13 13 13 13 13 13 13 12 12 12 13 13 13 12 12 12 12 13 13 13 13 13 13 13 13 13 13 13 13 13 13 13 13 12 12 12 12
13 13 13 13 13 13 13 13 13 13 13 13 12 12 12 12 12 12 12 12 12 12 12 12 12 13 13 13 12 12 13 13 13 13 13 12 12 12 12 12 12 12 12
13 13 13 13 13 13 13 13 13 12 12 12 12 12 12 12 12 12 12 12 12 12 12 12 12 12 12 12 12 12 12 12 12 12 12 12 12 12 12 12 12 12 12
13 13 13 13 13 13 13 12 12 12 12 12 12 12 12 12 12 12 12 12 12 12 12 12 12 12 12 12 12 12 12 12 12 12 12 12 12 12 12 12 12 12 12
13 13 13 13 12 12 12 12 12 12 12 12 12 12 12 12 12 12 12 12 12 12 12 12 12 12 12 12 12 12 12 12 12 12 12 12 12 12 12 12 12 11 11
13 13 13 12 12 12 12 12 12 12 12 12 12 12 12 12 12 12 12 12 12 12 11 11 11 12 12 12 12 12 12 12 11 11 12 12 12 12 12 11 11 11 11
13 13 12 12 12 12 12 12 12 12 12 12 12 12 12 12 12 12 12 12 11 11 11 11 11 11 11 11 11 11 11 11 11 11 11 11 11 11 11 11 11 11 11
13 12 12 12 12 12 12 12 12 12 12 12 12 12 11 11 11 11 11 11 11 11 11 11 11 11 11 11 11 11 11 11 11 11 11 11 11 11 11 11 11 11 11
12 12 12 12 12 12 12 12 11 11 11 11 11 11 11 11 11 11 11 11 11 11 11 10 10 11 11 11 10 10 10 10 10 11 11 11 11 11 11 11 11 11 11
12 12 12 12 12 12 12 11 11 11 11 11 11 11 11 11 11 11 11 10 10 10 10 10 10 10 10 10 10 10 10 10 10 10 10 10 10 10 10 10 10 10 10
11 11 11 11 11 11 11 11 11 11 11 11 11 11 11 11 11 11 10 10 10 10 10 10 10 10 10 10 10 10 10 9 10 10 9 10 10 10 10 10 10 10 10
11 11 11 11 11 11 11 10 10 10 10 10 10 10 10 10 10 10 10 10 10 10 10 9 9 9 9 9 9 9 9 9 9 9 9 9 9 9 9 9 9 9 9
10 10 10 10 10 10 10 10 10 10 10 10 10 10 10 10 10 10 9 10 10 9 9 9 9 9 9 9 9 9 9 9 8 9 9 9 9 9 9 9 9 9 9
10 10 10 10 10 10 10 10 10 9 9 9 9 9 9 9 9 9 9 9 9 9 9 9 9 9 9 9 8 8 8 8 8 8 8 8 8 8 8 8 8 8 8
Wind_Speed
4 4 5 6 6 6 6 6 6 6 6 7 7 7 6 7 7 7 7 9 9 9 9 9 9 9 9 9 8 8 8 8 9 9 8 8 8 8 8 8 8 8 7
4 4 5 5 5 5 6 6 6 5 5 5 6 6 6 6 7 8 8 8 10 9 9 8 9 9 9 8 8 7 7 8 8 8 8 8 8 8 8 8 8 8 7
5 5 4 4 4 5 6 6 6 6 5 5 5 6 6 6 7 7 8 8 8 10 9 8 8 8 8 8 7 6 6 7 7 7 7 7 7 7 8 8 7 7 7
6 5 4 3 4 5 5 4 4 5 5 4 4 4 5 5 6 6 6 7 7 7 8 8 7 7 6 6 6 6 6 6 6 7 7 7 7 7 7 7 6 6 7
5 5 3 3 4 4 4 3 4 3 4 4 4 4 4 4 4 5 6 6 6 6 7 8 8 7 6 5 6 5 5 5 5 5 6 6 6 6 6 6 6 6 6
5 4 3 3 4 4 3 3 4 4 3 3 4 5 4 3 4 4 4 5 5 5 6 6 6 6 6 5 5 5 4 4 4 4 5 5 5 5 5 5 5 6 6
4 4 3 3 3 3 2 3 3 3 3 2 3 4 4 4 4 3 4 4 4 5 6 5 5 5 5 6 5 4 3 2 3 3 4 4 4 4 4 5 5 5 5
4 3 3 2 2 2 3 2 2 2 1 2 2 2 2 4 3 4 3 3 4 4 4 4 4 5 5 5 5 5 4 2 2 2 3 3 4 4 4 4 4 5 5
3 3 3 3 2 2 2 2 2 2 2 1 1 3 2 1 2 3 3 3 3 2 3 3 4 4 4 4 5 5 5 3 1 2 3 3 3 4 4 4 4 4 4
3 3 3 2 2 1 1 1 2 1 2 1 1 1 1 3 2 1 2 2 3 2 2 3 3 4 4 4 4 5 5 4 2 1 2 3 3 3 4 4 4 4 4
2 2 2 2 1 1 1 1 1 1 1 2 1 1 1 1 1 2 1 2 3 2 2 2 2 3 3 3 4 4 4 5 3 2 2 2 3 3 3 3 4 4 4
1 1 1 1 1 1 1 1 1 1 1 1 1 2 2 2 2 2 2 1 2 2 2 2 1 2 2 3 3 4 4 5 4 4 3 2 2 2 3 4 4 4 4
1 1 0 0 0 1 1 1 1 1 1 1 2 1 1 1 2 2 2 1 1 2 2 1 1 1 1 2 3 4 4 4 4 4 4 3 2 2 2 3 4 4 4
2 2 1 1 1 1 1 1 1 1 1 1 1 1 1 1 2 2 3 2 0 1 1 2 2 1 1 1 2 3 3 4 3 3 3 3 2 2 2 3 3 3 3
2 1 1 1 1 1 1 1 1 1 1 1 1 1 1 1 1 2 2 2 3 1 2 2 1 1 1 0 1 2 2 3 3 3 2 2 1 2 2 2 2 3 2
2 1 1 2 1 1 1 1 1 1 1 1 1 1 1 1 1 1 2 1 2 2 2 2 2 1 1 0 1 1 1 2 3 3 3 2 1 1 1 2 2 2 2
2 2 2 2 2 2 2 2 2 1 1 1 0 1 1 1 1 1 1 1 1 1 2 1 1 1 0 0 1 1 1 1 2 2 2 2 1 1 1 2 3 3 3
2 2 2 2 2 2 2 3 3 2 2 2 1 1 1 1 1 1 2 2 2 2 2 2 1 1 1 1 0 1 1 1 1 2 2 1 0 1 1 1 2 3 3
2 2 2 2 3 3 3 3 3 3 3 2 2 2 2 1 1 1 2 2 2 1 1 2 1 1 1 0 1 1 1 2 2 2 2 2 1 1 1 2 2 2 3
2 2 2 2 2 2 2 3 3 3 2 2 2 2 2 2 3 2 2 2 2 2 2 1 1 0 0 0 1 0 1 2 2 2 2 2 2 2 1 2 2 3 3
1 2 1 1 1 2 2 3 3 3 2 2 2 2 2 2 2 2 2 3 3 3 2 1 1 1 1 1 1 1 1 1 2 2 2 2 2 2 2 2 1 2 3
1 0 1 1 1 1 2 3 3 3 3 2 2 2 2 2 2 2 2 3 4 4 4 3 2 2 3 2 2 2 1 0 1 1 0 2 1 1 2 2 1 1 1
1 1 1 1 1 2 2 2 3 2 2 2 2 2 2 1 1 1 2 2 2 2 4 4 4 4 3 4 3 3 3 2 2 1 0 2 1 2 2 2 1 0 1
1 1 1 1 1 2 2 2 2 2 2 1 2 2 2 1 1 2 3 2 1 1 2 2 3 4 3 3 4 4 4 2 0 0 1 2 2 2 2 2 1 1 1
1 1 2 2 2 2 2 1 1 2 1 1 1 1 1 2 1 2 3 2 1 1 0 1 1 1 1 3 4 3 2 2 1 1 1 1 1 1 1 1 2 1 1
2 1 1 2 2 2 2 1 1 2 1 1 1 1 1 1 1 1 3 3 3 2 0 0 1 2 1 2 4 3 3 2 2 2 2 2 1 0 1 1 2 2 1
Wind_Direction
63 61 59 61 60 64 66 65 67 66 66 62 65 67 61 55 54 50 50 61 71 80 84 82 88 87 83 80 77 78 78 78 79 78 77 79 79 78 77 75 72 75 79
77 74 64 61 60 64 69 73 69 69 69 68 62 61 58 54 54 54 49 48 56 68 74 75 79 85 83 79 78 77 77 80 79 78 77 79 79 78 79 73 70 71 73
89 85 73 63 64 72 73 73 66 64 66 64 55 53 56 53 53 51 48 45 44 49 55 64 69 78 78 74 73 76 84 84 81 79 80 81 81 81 82 78 74 72 73
98 94 85 70 75 78 74 72 64 64 59 56 51 43 44 45 44 45 47 46 41 38 42 49 56 65 72 72 69 70 76 84 83 80 80 83 84 85 85 84 81 75 71
97 96 87 80 85 80 69 77 64 70 69 61 57 46 37 37 34 42 43 42 42 42 39 36 36 36 51 61 61 66 71 79 84 85 85 86 87 86 85 83 84 79 73
96 98 90 86 91 82 66 68 73 61 65 62 63 50 34 30 36 35 31 32 34 40 42 40 28 19 31 42 49 53 59 71 86 95 96 95 93 92 90 88 87 84 75
95 99 87 85 92 99 107 99 87 74 58 55 60 36 20 26 35 29 26 30 26 31 37 34 29 23 20 24 30 36 38 59 88 107 111 108 100 101 102 94 90 88 80
90 103 94 83 91 99 99 105 105 96 74 70 89 75 23 4 7 15 17 28 19 26 29 24 29 26 20 18 14 18 17 27 102 124 127 122 117 109 110 105 96 92 81
88 97 107 107 99 110 138 145 138 132 143 80 96 120 122 223 326 345 4 15 11 19 14 21 23 20 15 14 8 8 7 18 91 148 142 134 136 129 123 112 107 101 89
76 93 107 111 115 110 126 166 147 144 139 149 78 80 147 162 154 334 335 350 359 6 5 13 15 12 14 15 10 12 17 31 47 159 161 154 152 144 138 124 121 111 100
44 64 100 116 117 127 150 119 113 134 143 155 160 135 100 82 120 154 276 328 345 342 347 353 10 8 11 13 14 17 27 36 47 74 134 158 156 155 157 144 144 129 114
6 22 73 134 151 136 149 151 137 137 156 152 156 154 157 159 175 163 192 266 301 310 326 336 348 1 8 14 10 19 33 44 54 62 72 97 135 144 152 148 145 136 125
260 268 201 199 197 189 173 148 135 144 162 160 178 196 191 195 165 159 156 194 267 305 323 325 307 330 8 26 15 15 28 39 54 61 60 63 90 132 146 152 150 148 137
224 232 212 214 225 194 180 148 136 185 152 177 198 190 194 216 177 169 165 156 161 312 320 290 309 292 345 25 3 21 33 33 41 54 55 58 77 106 122 131 143 140 129
218 201 204 221 226 196 176 148 163 211 162 182 217 205 221 246 193 189 172 167 162 204 265 262 276 298 302 335 4 42 34 20 19 25 36 39 61 108 108 116 127 123 116
209 182 197 216 220 206 162 150 181 210 159 208 203 190 233 249 199 182 178 176 174 177 226 254 248 276 262 360 4 58 0 3 10 13 17 24 49 118 137 138 134 133 142
193 202 209 205 208 212 193 175 195 182 183 236 271 230 254 217 176 177 162 154 158 151 197 273 282 300 327 344 29 44 1 7 356 358 359 8 44 120 140 160 167 162 158
198 209 206 198 210 213 199 190 197 188 197 225 249 237 282 232 188 192 173 177 183 178 171 207 271 298 269 233 344 16 16 11 353 351 356 348 351 136 140 160 176 179 173
211 208 187 200 220 220 208 205 193 191 200 223 237 226 248 217 225 227 191 188 192 176 151 169 215 298 317 331 40 7 3 360 352 339 332 331 321 264 216 205 199 193 188
198 211 202 208 217 215 205 200 187 187 198 224 242 237 236 222 224 216 201 197 176 152 138 136 171 233 306 328 108 26 345 347 344 352 345 332 332 339 296 248 220 206 201
197 220 199 200 195 204 203 186 186 186 191 222 255 260 248 242 233 207 197 187 169 162 156 153 187 198 231 195 211 209 247 319 333 347 343 345 355 2 338 318 276 221 208
209 220 222 198 210 237 215 190 179 184 190 207 244 270 271 271 265 211 184 165 161 169 180 175 195 212 228 222 200 200 187 211 280 306 304 317 353 329 309 295 308 311 235
175 177 248 220 240 250 239 215 189 169 184 217 234 255 279 288 277 202 182 153 162 169 175 178 190 215 215 213 188 197 201 199 225 257 231 275 308 293 294 302 290 290 326
181 206 240 229 242 261 250 239 189 160 175 221 237 233 231 260 220 165 160 151 168 217 211 186 196 211 204 190 191 200 197 171 63 333 153 239 270 269 293 289 281 258 259
189 216 231 225 235 269 260 260 154 160 176 236 254 246 223 236 253 155 147 158 183 272 290 174 192 229 182 160 150 119 131 154 242 256 209 201 255 272 284 288 288 270 260
193 195 240 242 231 255 270 249 158 164 182 239 277 290 251 246 267 159 168 171 194 238 240 27 29 24 63 148 157 164 179 185 206 233 212 187 222 248 286 290 306 304 293
Height
1524 1524 1524 1523 1523 1523 1522 1522 1522 1522 1522 1523 1524 1525 1525 1526 1527 1528 1528 1529 1530 1530 1530 1530 1531 1531 1531 1531 1532 1532 1532 1532 1533 1533 1534 1534 1535 1535 1536 1536 1537 1538 1538
1526 1526 1525 1525 1525 1524 1524 1524 1524 1524 1524 1525 1525 1526 1527 1528 1528 1529 1530 1530 1531 1531 1531 1532 1532 1532 1532 1532 1532 1532 1532 1533 1533 1534 1534 1535 1535 1536 1536 1537 1537 1538 1538
1528 1528 1527 1527 1527 1526 1526 1526 1525 1525 1526 1527 1527 1528 1528 1529 1530 1530 1531 1531 1532 1532 1532 1532 1532 1532 1533 1533 1533 1533 1533 1533 1533 1534 1534 1534 1535 1535 1536 1536 1537 1537 1538
1530 1529 1529 1528 1528 1528 1528 1527 1527 1527 1527 1528 1528 1528 1529 1530 1531 1532 1532 1533 1533 1533 1534 1534 1533 1534 1534 1534 1534 1534 1534 1534 1534 1534 1534 1534 1535 1536 1536 1536 1537 1537 1538
1531 1531 1530 1530 1530 1530 1529 1529 1529 1529 1529 1529 1529 1530 1530 1532 1532 1533 1533 1533 1534 1534 1535 1535 1535 1535 1535 1535 1534 1534 1534 1534 1534 1534 1534 1535 1535 1536 1536 1536 1537 1537 1538
1532 1532 1532 1531 1531 1531 1531 1531 1530 1530 1530 1531 1531 1531 1532 1533 1533 1533 1534 1534 1535 1535 1535 1536 1536 1535 1535 1535 1535 1534 1534 1534 1534 1534 1534 1535 1535 1535 1536 1536 1537 1537 1538
1533 1532 1532 1532 1532 1532 1532 1532 1532 1532 1532 1532 1532 1532 1533 1533 1534 1534 1535 1535 1535 1535 1536 1536 1536 1536 1536 1535 1535 1534 1534 1534 1533 1534 1534 1534 1535 1535 1536 1536 1537 1537 1538
1533 1533 1533 1533 1533 1532 1532 1532 1532 1532 1533 1533 1534 1533 1534 1535 1534 1535 1535 1535 1535 1535 1536 1536 1536 1536 1536 1535 1535 1534 1534 1533 1533 1533 1534 1534 1535 1535 1536 1536 1537 1537 1538
1533 1533 1533 1533 1533 1533 1533 1533 1533 1533 1533 1534 1534 1535 1534 1535 1535 1535 1535 1535 1535 1535 1535 1536 1536 1536 1535 1535 1535 1534 1534 1533 1533 1533 1534 1534 1534 1535 1536 1536 1536 1537 1537
1533 1533 1533 1533 1533 1533 1533 1533 1533 1533 1533 1534 1534 1534 1535 1535 1535 1535 1535 1535 1535 1535 1535 1535 1535 1535 1535 1535 1534 1534 1534 1533 1533 1533 1533 1533 1534 1534 1535 1536 1536 1536 1537
1533 1533 1533 1533 1533 1533 1533 1533 1533 1533 1533 1533 1534 1534 1534 1534 1535 1535 1534 1534 1534 1534 1534 1534 1534 1534 1534 1534 1534 1534 1533 1533 1532 1532 1532 1533 1533 1534 1534 1535 1535 1536 1537
1533 1533 1533 1532 1532 1532 1532 1533 1533 1533 1533 1533 1533 1533 1533 1533 1534 1534 1534 1533 1533 1534 1533 1534 1534 1534 1534 1533 1533 1533 1532 1532 1532 1532 1532 1532 1532 1533 1533 1534 1535 1535 1536
1531 1532 1532 1532 1532 1532 1532 1532 1532 1532 1532 1532 1532 1532 1532 1532 1533 1533 1533 1533 1533 1533 1533 1533 1533 1533 1533 1533 1532 1532 1532 1532 1531 1531 1531 1531 1532 1532 1533 1533 1534 1535 1535
1530 1531 1531 1531 1531 1531 1531 1531 1531 1531 1531 1531 1531 1531 1531 1531 1531 1531 1532 1532 1531 1532 1531 1532 1532 1532 1532 1532 1532 1532 1531 1531 1531 1531 1531 1531 1531 1532 1532 1533 1533 1534 1534
1529 1529 1529 1530 1530 1530 1530 1530 1530 1530 1530 1530 1530 1530 1529 1529 1529 1530 1530 1531 1531 1530 1530 1530 1530 1531 1531 1531 1531 1531 1530 1530 1530 1530 1530 1530 1531 1531 1531 1531 1532 1533 1533
1527 1527 1527 1528 1528 1528 1528 1528 1528 1528 1528 1528 1528 1528 1528 1528 1528 1528 1528 1529 1529 1529 1529 1528 1529 1529 1529 1530 1530 1530 1530 1529 1529 1529 1529 1529 1529 1530 1530 1531 1531 1532 1532
1525 1525 1525 1525 1526 1526 1526 1526 1526 1526 1526 1526 1526 1526 1526 1526 1526 1526 1526 1527 1527 1527 1527 1527 1527 1527 1528 1528 1528 1528 1529 1528 1528 1528 1528 1528 1528 1528 1529 1529 1530 1530 1531
1522 1523 1523 1523 1524 1524 1524 1524 1524 1524 1524 1524 1524 1524 1524 1524 1524 1524 1524 1524 1524 1525 1525 1525 1525 1525 1525 1526 1526 1526 1527 1527 1527 1527 1527 1527 1527 1527 1527 1528 1528 1529 1529
1519 1520 1520 1520 1521 1521 1522 1522 1522 1522 1521 1521 1521 1521 1521 1521 1521 1521 1521 1521 1522 1522 1522 1522 1522 1523 1523 1523 1524 1524 1524 1525 1525 1525 1525 1525 1525 1525 1525 1526 1526 1526 1527
1516 1517 1517 1518 1518 1518 1519 1519 1519 1519 1519 1519 1519 1519 1518 1518 1518 1518 1518 1518 1519 1519 1520 1520 1520 1520 1520 1521 1521 1521 1521 1522 1522 1522 1523 1523 1523 1523 1523 1523 1524 1524 1524
1513 1513 1514 1514 1515 1515 1515 1516 1516 1516 1516 1516 1516 1516 1515 1515 1515 1515 1515 1515 1516 1516 1517 1517 1517 1517 1517 1518 1518 1519 1519 1519 1519 1519 1520 1520 1520 1520 1520 1520 1520 1521 1521
1510 1510 1510 1511 1511 1511 1512 1512 1512 1513 1513 1513 1512 1512 1512 1512 1512 1512 1512 1513 1513 1513 1513 1514 1514 1514 1514 1515 1515 1516 1516 1516 1516 1517 1517 1517 1517 1517 1517 1517 1517 1518 1518
1506 1507 1507 1507 1507 1508 1508 1509 1509 1509 1509 1509 1509 1509 1509 1509 1509 1509 1509 1510 1510 1510 1511 1511 1511 1511 1512 1512 1512 1513 1513 1513 1513 1513 1514 1513 1514 1514 1514 1514 1515 1515 1515
1503 1503 1503 1504 1504 1504 1505 1505 1505 1506 1506 1506 1506 1506 1506 1506 1506 1506 1506 1506 1507 1507 1508 1508 1508 1509 1509 1510 1510 1510 1509 1510 1510 1510 1511 1510 1510 1511 1511 1512 1512 1512 1512
1499 1500 1500 1500 1501 1501 1502 1502 1502 1502 1502 1502 1502 1502 1502 1503 1503 1503 1503 1503 1503 1504 1505 1505 1505 1506 1506 1506 1506 1506 1506 1506 1506 1507 1507 1507 1507 1507 1508 1508 1508 1508 1508
1496 1496 1497 1497 1497 1498 1498 1498 1499 1499 1498 1499 1499 1499 1499 1499 1500 1500 1499 1499 1500 1501 1501 1502 1502 1502 1503 1503 1503 1503 1503 1503 1503 1503 1503 1504 1504 1504 1504 1504 1505 1504 1504